N744JN KJFK-EGLL

Flight info

Callsign N744JN
Flight time N/A
Altitude 31000
Route KJFK MERIT HFD PUT WITCH ALLEX N535B UMESI NATU OLGON INKUR LIFFY UL975 MALUD Q38 NUGRA NUGRA2H EGLL
Aircraft GLF6/M-SDE2E3FGHIRWY/LB1

Departure

Time 2026-05-08 23:22
Airport John F. Kennedy International Airport (KJFK)

Arrival

Time N/A
Airport London Heathrow Airport (EGLL)
Time Latitude Longitude Altitude Speed Heading
2026-05-08 22:57 40.65058 -73.81165 16 ft 0 kts 331°
2026-05-08 23:10 40.65061 -73.81156 15 ft 2 kts 74°
2026-05-08 23:10 40.65039 -73.81142 15 ft 0 kts 162°
2026-05-08 23:12 40.65038 -73.81141 15 ft 1 kts 162°
2026-05-08 23:13 40.65005 -73.81157 14 ft 9 kts 210°
2026-05-08 23:13 40.64931 -73.81213 14 ft 11 kts 202°
2026-05-08 23:13 40.64878 -73.81164 14 ft 13 kts 120°
2026-05-08 23:13 40.64817 -73.81027 14 ft 21 kts 122°
2026-05-08 23:14 40.64736 -73.80850 14 ft 25 kts 121°
2026-05-08 23:14 40.64650 -73.80659 14 ft 20 kts 121°
2026-05-08 23:14 40.64571 -73.80484 14 ft 24 kts 121°
2026-05-08 23:14 40.64491 -73.80309 14 ft 22 kts 121°
2026-05-08 23:15 40.64400 -73.80109 14 ft 29 kts 120°
2026-05-08 23:15 40.64300 -73.79902 14 ft 28 kts 132°
2026-05-08 23:15 40.64194 -73.79759 15 ft 22 kts 124°
2026-05-08 23:15 40.64100 -73.79603 15 ft 20 kts 163°
2026-05-08 23:16 40.64079 -73.79596 16 ft 0 kts 163°
2026-05-08 23:16 40.64063 -73.79589 15 ft 6 kts 156°
2026-05-08 23:16 40.64002 -73.79534 15 ft 15 kts 137°
2026-05-08 23:16 40.63931 -73.79390 14 ft 23 kts 121°
2026-05-08 23:17 40.63844 -73.79198 14 ft 26 kts 120°
2026-05-08 23:17 40.63753 -73.78997 15 ft 27 kts 121°
2026-05-08 23:17 40.63667 -73.78806 16 ft 22 kts 122°
2026-05-08 23:17 40.63577 -73.78609 16 ft 25 kts 121°
2026-05-08 23:18 40.63488 -73.78415 16 ft 23 kts 120°
2026-05-08 23:18 40.63418 -73.78257 16 ft 8 kts 121°
2026-05-08 23:18 40.63399 -73.78224 16 ft 0 kts 146°
2026-05-08 23:18 40.63391 -73.78220 16 ft 3 kts 171°
2026-05-08 23:19 40.63386 -73.78224 16 ft 0 kts 211°
2026-05-08 23:21 40.63375 -73.78233 16 ft 5 kts 211°
2026-05-08 23:21 40.63321 -73.78275 16 ft 11 kts 211°
2026-05-08 23:21 40.63306 -73.78304 17 ft 2 kts 290°
2026-05-08 23:22 40.63379 -73.78459 15 ft 51 kts 301°
2026-05-08 23:22 40.63694 -73.79155 15 ft 125 kts 300°
2026-05-08 23:22 40.64238 -73.80330 240 ft 169 kts 302°
2026-05-08 23:22 40.64905 -73.81807 787 ft 203 kts 300°
2026-05-08 23:23 40.65222 -73.83643 1891 ft 221 kts 267°
2026-05-08 23:23 40.64525 -73.85684 2311 ft 281 kts 230°
2026-05-08 23:23 40.62719 -73.87162 2887 ft 322 kts 202°
2026-05-08 23:23 40.60695 -73.87457 3874 ft 273 kts 177°